IRIDIUM 84 [+]

Last updated on Tue Aug 28 2018 14:42:46 GMT+0000 (Coordinated Universal Time)

1 25530U 98066D 18239.40731227 .00000052 00000-0 11555-4 0 9991 2 25530 86.4008 167.6144 0002302 83.9060 276.2398 14.34215479 39521
UTC large
Height (km)
Speed (km/s)
/
Latitude / Longitude
Inclination (degrees)
Orbital Period (minutes)
Azimuth
Elevation
Range (km)
Doppler Factor

Next 0 passes for location: London (51.5072 / 0.1276)

Sorry there are no passes over London.